Weather History for Wolf Point, MT

Change the Weather History Date:

Monday, April 29, 2013

  Actual Average Record
Temperature  
Mean Temperature 54 °F -  
Max Temperature 68 °F 65 °F 82 °F (2008)
Min Temperature 40 °F 33 °F 24 °F (2005)
Degree Days  
Heating Degree Days 11    
Cooling Degree Days 0    
Growing Degree Days 5 (Base 50)    
Moisture  
Dew Point 32 °F    
Average Humidity 45    
Maximum Humidity 76    
Minimum Humidity 21    
Precipitation  
Precipitation T in 0.05 in 0.05 in (2011)
Month to date precipitation 0.25 0.89  
Year to date precipitation 0.98 1.87  
Sea Level Pressure  
Sea Level Pressure 29.50 in    
Wind  
Wind Speed 11 mph (West)    
Max Wind Speed 25 mph    
Max Gust Speed 36 mph    
Visibility 10 miles    
Events Rain    
T = Trace of Precipitation, MM = Missing Value Source: NWS Daily Summary

Daily Weather History Graph

Daily Weather History Graph

Search for Another Location

Airport:

Trip Planner

Search our weather history database for the weather conditions in past years. The results will help you decide how hot, cold, wet, or windy it might be!

Date:

Astronomy

Apr. 29, 2013 Rise Set
Actual Time 5:46 AM MDT 8:13 PM MDT
Civil Twilight 5:12 AM MDT 8:48 PM MDT
Nautical Twilight 4:28 AM MDT 9:31 PM MDT
Astronomical Twilight 3:39 AM MDT 10:22 PM MDT
Moon No Moon Rise 9:02 AM MDT (4/29)
Length of Visible Light 15h 35m
Length of Day
14h 26m
Waning Gibbous, 79% of the Moon is Illuminated
Apr 29
Waning Gibbous
May 2
Last Quarter
May 9
New
May 17
First Quarter
May 24
Full

Hourly Weather History & Observations

Time (MDT) Temp. Windchill Dew Point Humidity Pressure Visibility Wind Dir Wind Speed Gust Speed Precip Events Conditions
12:53 AM 48.9 °F - 30.0 °F 48% 29.67 in 10.0 mi ENE 9.2 mph - N/A   Clear
1:53 AM 48.0 °F - 32.0 °F 54% 29.63 in 10.0 mi ENE 3.5 mph - N/A   Mostly Cloudy
2:53 AM 51.1 °F - 35.1 °F 54% 29.62 in 10.0 mi WNW 17.3 mph 29.9 mph N/A   Overcast
3:53 AM 51.1 °F - 37.0 °F 59% 29.59 in 10.0 mi SW 5.8 mph - 0.00 in   Mostly Cloudy
4:53 AM 48.0 °F - 37.0 °F 66% 29.58 in 10.0 mi SW 6.9 mph - N/A   Clear
5:53 AM 48.0 °F - 37.0 °F 66% 29.56 in 10.0 mi WSW 3.5 mph - N/A   Clear
6:53 AM 44.1 °F - 37.0 °F 76% 29.56 in 10.0 mi Calm Calm - N/A   Clear
7:53 AM 50.0 °F - 39.0 °F 66% 29.55 in 10.0 mi SW 4.6 mph - N/A   Clear
8:53 AM 55.0 °F - 35.1 °F 47% 29.54 in 10.0 mi WSW 9.2 mph - N/A   Scattered Clouds
9:53 AM 59.0 °F - 34.0 °F 39% 29.51 in 10.0 mi West 8.1 mph - N/A   Overcast
10:53 AM 62.1 °F - 30.0 °F 30% 29.49 in 10.0 mi West 16.1 mph - N/A   Overcast
11:53 AM 62.1 °F - 30.0 °F 30% 29.48 in 10.0 mi West 25.3 mph 31.1 mph N/A   Overcast
12:53 PM 64.0 °F - 34.0 °F 33% 29.45 in 10.0 mi WSW 21.9 mph 28.8 mph N/A   Scattered Clouds
1:53 PM 64.9 °F - 33.1 °F 31% 29.42 in 10.0 mi SW 18.4 mph 32.2 mph N/A   Partly Cloudy
2:53 PM 66.9 °F - 30.9 °F 26% 29.37 in 10.0 mi SW 17.3 mph 29.9 mph N/A   Partly Cloudy
3:18 PM 57.2 °F - 35.6 °F 44% 29.38 in 10.0 mi NW 20.7 mph 35.7 mph 0.00 in Rain Light Rain
3:53 PM 62.1 °F - 36.0 °F 38% 29.38 in 10.0 mi NW 15.0 mph 28.8 mph 0.00 in   Clear
4:40 PM 64.4 °F - 28.4 °F 26% 29.38 in 10.0 mi West 18.4 mph - N/A   Clear
4:53 PM 66.0 °F - 25.0 °F 21% 29.37 in 10.0 mi West 17.3 mph 29.9 mph N/A   Clear
5:53 PM 60.1 °F - 28.9 °F 31% 29.42 in 10.0 mi WNW 19.6 mph 27.6 mph N/A   Mostly Cloudy
6:53 PM 59.0 °F - 25.0 °F 27% 29.43 in 10.0 mi West 16.1 mph 23.0 mph N/A   Partly Cloudy
7:53 PM 52.0 °F - 33.1 °F 49% 29.48 in 10.0 mi NW 15.0 mph 24.2 mph N/A   Clear
8:53 PM 48.9 °F - 30.9 °F 50% 29.50 in 10.0 mi West 10.4 mph - N/A   Partly Cloudy
9:53 PM 46.0 °F 40.2 °F 26.1 °F 46% 29.51 in 10.0 mi West 12.7 mph - N/A   Clear
10:53 PM 46.0 °F 38.3 °F 28.0 °F 50% 29.53 in 10.0 mi West 20.7 mph 27.6 mph N/A   Clear
11:53 PM 44.1 °F 36.5 °F 28.9 °F 55% 29.54 in 10.0 mi West 17.3 mph 25.3 mph N/A   Clear